871  
ASUS44 KMAF 230310  
RWRMAF  
MIDLAND AREA WEATHER ROUNDUP  
NATIONAL WEATHER SERVICE MIDLAND TX  
1000 PM CDT SUN APR 22 2018  
   
..IN SOUTHWEST TEXAS AND SOUTHEAST NEW MEXICO
 
 
 
CITY SKY/WX TMP DP RH WIND PRES REMARKS
 
ALPINE CLEAR 58 34 40 W3 30.18R  
ANDREWS FAIR 61 35 38 E6 30.11R  
ARTESIA PTCLDY 63 37 39 S7 30.08R  
BIG SPRING CLOUDY 65 36 33 E13 30.12R  
CARLSBAD PTCLDY 60 36 40 S7 30.06R  
DRYDEN N/A 65 36 34 E5 30.04R  
FORT STOCKTON CLEAR 63 36 36 E7 30.08R  
GUAD PASS CLEAR 58 35 42 NE25 30.16R  
HOBBS CLEAR 59 32 36 S5 30.11R  
LAMESA CLOUDY 59 37 44 E8 30.12R  
MARFA CLEAR 59 35 40 NE8 30.15R  
MIDLAND AIRPK N/A 68 35 29 E5 30.10R  
MIDLAND INTL PTCLDY 66 36 32 E6 30.09R  
ODESSA CLEAR 67 34 29 E7 30.10R  
PECOS CLEAR 63 37 38 NE6 30.07R  
PRESIDIO FAIR 76 33 20 E10 30.02R  
SEMINOLE CLEAR 59 34 39 SE5 30.12R  
SNYDER MOCLDY 63 39 41 NE7 30.10R  
WINK CLEAR 64 34 32 SE6 30.06R  

   
..OTHER STATIONS IN TEXAS
 
 
 
CITY SKY/WX TMP DP RH WIND PRES REMARKS
 
ABILENE PTCLDY 62 37 39 NE3 30.09R  
AMARILLO PTCLDY 45 37 73 N9 30.16R  
AUSTIN PTCLDY 58 48 69 N8 30.05R  
BROWNSVILLE FAIR 70 63 78 E3 30.02R  
CORPUS CHRISTI MOCLDY 71 61 70 E7 30.02R  
DALLAS FTW PTCLDY 61 46 57 NW10 30.03R  
DEL RIO CLOUDY 71 44 37 SW3 30.00R  
EL PASO CLOUDY 73 34 23 CALM 30.04R  
HOUSTON INT FAIR 64 52 64 W3 30.03R  
LUBBOCK MOCLDY 56 40 55 E8 30.12R  
SAN ANGELO CLEAR 65 38 36 E8 30.08R  
SAN ANTONIO CLOUDY 69 50 50 E7 30.04R  
WACO CLEAR 51 46 83 W5 30.06R  
WICHITA FALLS CLOUDY 55 45 68 NE7 30.11R  

   
..OTHER LOCATIONS IN NEW MEXICO
 
 
 
CITY SKY/WX TMP DP RH WIND PRES REMARKS
 
ALAMOGORDO MOCLDY 64 25 22 CALM 30.07R  
ALBUQUERQUE PTCLDY 66 26 22 S10 30.07R  
CANNON AFB PTCLDY 56 46 69 E9 30.14R  
CLOVIS PTCLDY 52 42 69 E10 30.15R  
HOLLOMAN AFB MOCLDY 67 26 21 SE3 30.08R  
ROSWELL PTCLDY 61 36 39 S6 30.07R  
RUIDOSO NOT AVBL  
SANTA FE PTCLDY 60 24 25 E18 30.12R  
TRUTH OR CONSE MOCLDY 70 26 19 SE8 30.05R  
TUCUMCARI CLOUDY 54 41 61 E14 30.11R  

 
 
 
CLICK HERE TO GO TO PREVIOUS BULLETINS.

The Nexlab TX Page
The Nexlab NM Page Main Text Page